User: anonymous   Login
Location: Delta State University
(33.7460°N, 90.7320°W)
Time: 11:25:26
(UTC-06:00)
Language:

Iridium 13 - Orbit

View from above orbital plane
View from above orbital plane
View from above satellite
View from above satellite

Ground track
Ground track

The orbit data is extracted from the following two-line orbital elements,

1 24840U 97030E   15058.28266907  .00000470  00000-0  16081-3 0  9996
2 24840 086.4006 341.7086 0002372 080.5109 086.2980 14.34216409926419
Epoch (UTC): 27 February 2015 06:47:02
Eccentricity: 0.0002372
inclination: 86.4006°
perigee height: 776 km
apogee height: 779 km
right ascension of ascending node: 341.7086°
argument of perigee: 80.5109°
revolutions per day: 14.34216409
mean anomaly at epoch: 86.2980°
orbit number at epoch: 92641

The dashed part of the orbit path shows where the satellite is in the earth's shadow,  

DLR